Terminal Aerodrome Forecast
Issued by NWS Greer, SC

Home | Current Version | Previous Version | Text Only | Print | Product List | Glossary On
Versions: 1 2 3 4 5 6 7 8 9 10 11 12 13 14 15 16 17 18 19 20 21 22 23 24 25 26 27 28 29 30 31 32 33 34 35 36 37 38 39 40 41 42
000
FTUS42 KGSP 271038 AAA
TAFAVL
TAF AMD
KAVL 271038Z 2711/2806 36010KT P6SM FEW008 OVC020
      TEMPO 2711/2713 BKN008 OVC020
     FM271500 32013KT P6SM BKN040
     FM272000 32014KT P6SM SCT250=

USA.gov is the U.S. government's official web portal to all federal, state and local government web resources and services.